Time,TemperatureF,DewpointF,PressureIn,WindDirection,WindDirectionDegrees,WindSpeedMPH,WindSpeedGustMPH,Humidity,HourlyPrecipIn,Conditions,Clouds,dailyrainin,SoftwareType,DateUTC
2013-02-10 00:01:00,51.0,32.0,30.01,North,0,0.0,9.0,48,0.00,,,-99.99,,2013-02-10 08:01:00,
2013-02-10 00:32:00,50.0,31.0,30.02,WNW,288,2.0,8.0,47,0.00,,,-99.99,,2013-02-10 08:32:00,
2013-02-10 00:43:00,50.0,31.0,30.02,WNW,288,2.0,8.0,47,0.00,,,-99.99,,2013-02-10 08:43:00,
2013-02-10 00:52:00,49.0,31.0,30.02,WNW,282,2.0,9.0,50,0.00,,,-99.99,,2013-02-10 08:52:00,
2013-02-10 01:01:00,50.0,32.0,30.02,WNW,284,2.0,11.0,50,0.00,,,-99.99,,2013-02-10 09:01:00,
2013-02-10 01:11:00,50.0,32.0,30.02,WNW,284,2.0,11.0,50,0.00,,,-99.99,,2013-02-10 09:11:00,
2013-02-10 01:21:00,49.0,32.0,30.02,WNW,296,3.0,9.0,51,0.00,,,-99.99,,2013-02-10 09:21:00,
2013-02-10 01:31:00,50.0,32.0,30.01,WNW,288,4.0,10.0,50,0.00,,,-99.99,,2013-02-10 09:31:00,
2013-02-10 01:41:00,50.0,32.0,30.01,WNW,288,4.0,10.0,50,0.00,,,-99.99,,2013-02-10 09:41:00,
2013-02-10 01:51:00,49.0,31.0,30.01,WNW,287,5.0,12.0,49,0.00,,,-99.99,,2013-02-10 09:51:00,
2013-02-10 02:01:00,49.0,30.0,30.02,WNW,296,1.0,12.0,48,0.00,,,-99.99,,2013-02-10 10:01:00,
2013-02-10 02:11:00,49.0,31.0,30.02,WNW,291,3.0,9.0,49,0.00,,,-99.99,,2013-02-10 10:11:00,
2013-02-10 02:21:00,49.0,31.0,30.02,WNW,291,3.0,9.0,49,0.00,,,-99.99,,2013-02-10 10:21:00,
2013-02-10 02:31:00,49.0,31.0,30.01,NW,324,1.0,6.0,49,0.00,,,-99.99,,2013-02-10 10:31:00,
2013-02-10 02:41:00,49.0,31.0,30.01,NW,324,1.0,6.0,49,0.00,,,-99.99,,2013-02-10 10:41:00,
2013-02-10 02:51:00,49.0,30.0,30.01,North,0,0.0,9.0,47,0.00,,,-99.99,,2013-02-10 10:51:00,
2013-02-10 03:01:00,48.0,29.0,30.01,WNW,298,1.0,6.0,47,0.00,,,-99.99,,2013-02-10 11:01:00,
2013-02-10 03:11:00,48.0,29.0,30.01,WNW,298,1.0,6.0,47,0.00,,,-99.99,,2013-02-10 11:11:00,
2013-02-10 03:21:00,48.0,29.0,30.00,NW,306,1.0,6.0,47,0.00,,,-99.99,,2013-02-10 11:21:00,
2013-02-10 03:31:00,48.0,29.0,30.00,WNW,303,1.0,5.0,47,0.00,,,-99.99,,2013-02-10 11:31:00,
2013-02-10 03:41:00,48.0,29.0,30.00,WNW,303,1.0,5.0,47,0.00,,,-99.99,,2013-02-10 11:41:00,
2013-02-10 03:52:00,48.0,28.0,30.00,West,281,1.0,9.0,46,0.00,,,-99.99,,2013-02-10 11:52:00,
2013-02-10 04:01:00,48.0,28.0,30.00,North,0,0.0,6.0,46,0.00,,,-99.99,,2013-02-10 12:01:00,
2013-02-10 04:12:00,47.0,28.0,30.00,North,0,0.0,5.0,47,0.00,,,-99.99,,2013-02-10 12:12:00,
2013-02-10 04:21:00,47.0,28.0,30.00,North,0,0.0,5.0,47,0.00,,,-99.99,,2013-02-10 12:21:00,
2013-02-10 04:31:00,47.0,28.0,30.00,NW,311,1.0,7.0,47,0.00,,,-99.99,,2013-02-10 12:31:00,
2013-02-10 04:41:00,47.0,28.0,30.00,NW,311,1.0,7.0,47,0.00,,,-99.99,,2013-02-10 12:41:00,
2013-02-10 04:52:00,47.0,28.0,30.00,North,0,0.0,4.0,47,0.00,,,-99.99,,2013-02-10 12:52:00,
2013-02-10 05:02:00,47.0,27.0,30.00,West,281,1.0,4.0,46,0.00,,,-99.99,,2013-02-10 13:02:00,
2013-02-10 05:11:00,47.0,27.0,30.00,West,281,1.0,4.0,46,0.00,,,-99.99,,2013-02-10 13:11:00,
2013-02-10 05:21:00,47.0,29.0,29.99,North,0,0.0,3.0,49,0.00,,,-99.99,,2013-02-10 13:21:00,
2013-02-10 05:31:00,47.0,28.0,29.99,North,0,0.0,4.0,47,0.00,,,-99.99,,2013-02-10 13:31:00,
2013-02-10 05:41:00,47.0,28.0,29.99,North,0,0.0,4.0,47,0.00,,,-99.99,,2013-02-10 13:41:00,
2013-02-10 05:51:00,46.0,28.0,30.00,NW,323,1.0,5.0,49,0.00,,,-99.99,,2013-02-10 13:51:00,
2013-02-10 06:01:00,46.0,28.0,30.00,NW,304,1.0,8.0,49,0.00,,,-99.99,,2013-02-10 14:01:00,
2013-02-10 06:11:00,46.0,28.0,30.00,NW,304,1.0,8.0,49,0.00,,,-99.99,,2013-02-10 14:11:00,
2013-02-10 06:21:00,47.0,29.0,30.00,NW,321,1.0,6.0,50,0.00,,,-99.99,,2013-02-10 14:21:00,
2013-02-10 06:31:00,46.0,29.0,30.00,NNW,340,1.0,6.0,51,0.00,,,-99.99,,2013-02-10 14:31:00,
2013-02-10 06:41:00,46.0,29.0,30.00,NNW,340,1.0,6.0,51,0.00,,,-99.99,,2013-02-10 14:41:00,
2013-02-10 06:52:00,45.0,28.0,30.00,North,0,0.0,5.0,51,0.00,,,-99.99,,2013-02-10 14:52:00,
2013-02-10 07:01:00,45.0,29.0,30.00,North,0,0.0,4.0,53,0.00,,,-99.99,,2013-02-10 15:01:00,
2013-02-10 07:11:00,45.0,29.0,30.00,North,0,0.0,4.0,53,0.00,,,-99.99,,2013-02-10 15:11:00,
2013-02-10 07:21:00,45.0,28.0,30.00,North,0,0.0,5.0,52,0.00,,,-99.99,,2013-02-10 15:21:00,
2013-02-10 07:31:00,46.0,29.0,30.00,NNW,343,2.0,9.0,51,0.00,,,-99.99,,2013-02-10 15:31:00,
2013-02-10 07:41:00,46.0,29.0,30.00,NNW,343,2.0,9.0,51,0.00,,,-99.99,,2013-02-10 15:41:00,
2013-02-10 07:51:00,47.0,27.0,30.00,North,0,0.0,4.0,46,0.00,,,-99.99,,2013-02-10 15:51:00,
2013-02-10 08:01:00,49.0,30.0,30.00,North,0,0.0,3.0,47,0.00,,,-99.99,,2013-02-10 16:01:00,
2013-02-10 08:11:00,50.0,29.0,30.01,North,0,0.0,5.0,44,0.00,,,-99.99,,2013-02-10 16:11:00,
2013-02-10 08:21:00,50.0,29.0,30.01,North,0,0.0,5.0,44,0.00,,,-99.99,,2013-02-10 16:21:00,
2013-02-10 08:31:00,51.0,29.0,30.01,North,0,0.0,6.0,42,0.00,,,-99.99,,2013-02-10 16:31:00,
2013-02-10 08:41:00,52.0,30.0,30.01,WNW,289,3.0,10.0,43,0.00,,,-99.99,,2013-02-10 16:41:00,
2013-02-10 08:51:00,52.0,30.0,30.01,WNW,289,3.0,10.0,43,0.00,,,-99.99,,2013-02-10 16:51:00,
2013-02-10 09:01:00,53.0,29.0,30.01,West,277,4.0,8.0,40,0.00,,,-99.99,,2013-02-10 17:01:00,
2013-02-10 09:11:00,53.0,29.0,30.01,North,0,0.0,8.0,40,0.00,,,-99.99,,2013-02-10 17:11:00,
2013-02-10 09:21:00,53.0,29.0,30.01,North,0,0.0,8.0,40,0.00,,,-99.99,,2013-02-10 17:21:00,
2013-02-10 09:31:00,54.0,30.0,30.02,WNW,283,3.0,9.0,40,0.00,,,-99.99,,2013-02-10 17:31:00,
2013-02-10 09:41:00,55.0,31.0,30.02,WNW,294,6.0,14.0,39,0.00,,,-99.99,,2013-02-10 17:41:00,
2013-02-10 09:52:00,55.0,31.0,30.02,WNW,294,6.0,14.0,39,0.00,,,-99.99,,2013-02-10 17:52:00,
2013-02-10 10:01:00,55.0,31.0,30.02,WNW,285,5.0,15.0,39,0.00,,,-99.99,,2013-02-10 18:01:00,
2013-02-10 10:11:00,56.0,30.0,30.02,West,280,6.0,14.0,37,0.00,,,-99.99,,2013-02-10 18:11:00,
2013-02-10 10:21:00,56.0,30.0,30.02,West,280,6.0,14.0,37,0.00,,,-99.99,,2013-02-10 18:21:00,
2013-02-10 10:31:00,56.0,30.0,30.02,WNW,286,5.0,14.0,37,0.00,,,-99.99,,2013-02-10 18:31:00,
2013-02-10 10:41:00,56.0,30.0,30.02,WNW,286,5.0,14.0,37,0.00,,,-99.99,,2013-02-10 18:41:00,
2013-02-10 10:51:00,57.0,30.0,30.02,WNW,283,3.0,12.0,35,0.00,,,-99.99,,2013-02-10 18:51:00,
2013-02-10 11:01:00,57.0,30.0,30.01,WNW,295,5.0,12.0,35,0.00,,,-99.99,,2013-02-10 19:01:00,
2013-02-10 11:11:00,58.0,30.0,30.01,WNW,285,6.0,13.0,34,0.00,,,-99.99,,2013-02-10 19:11:00,
2013-02-10 11:21:00,58.0,30.0,30.01,WNW,285,6.0,13.0,34,0.00,,,-99.99,,2013-02-10 19:21:00,
2013-02-10 11:31:00,58.0,29.0,30.01,WNW,290,5.0,12.0,33,0.00,,,-99.99,,2013-02-10 19:31:00,
2013-02-10 11:42:00,59.0,29.0,30.01,WNW,288,4.0,14.0,32,0.00,,,-99.99,,2013-02-10 19:42:00,
2013-02-10 11:51:00,59.0,29.0,30.01,WNW,288,4.0,14.0,32,0.00,,,-99.99,,2013-02-10 19:51:00,
2013-02-10 12:01:00,59.0,28.0,30.00,West,276,5.0,13.0,31,0.00,,,-99.99,,2013-02-10 20:01:00,
2013-02-10 12:11:00,59.0,28.0,29.99,WNW,286,4.0,13.0,30,0.00,,,-99.99,,2013-02-10 20:11:00,
2013-02-10 12:21:00,59.0,28.0,29.99,WNW,286,4.0,13.0,30,0.00,,,-99.99,,2013-02-10 20:21:00,
2013-02-10 12:31:00,60.0,28.0,29.98,WNW,300,4.0,14.0,30,0.00,,,-99.99,,2013-02-10 20:31:00,
2013-02-10 12:41:00,60.0,28.0,29.97,WNW,289,5.0,13.0,30,0.00,,,-99.99,,2013-02-10 20:41:00,
2013-02-10 12:52:00,60.0,28.0,29.97,WNW,289,5.0,13.0,30,0.00,,,-99.99,,2013-02-10 20:52:00,
2013-02-10 13:02:00,60.0,27.0,29.96,WNW,288,4.0,12.0,28,0.00,,,-99.99,,2013-02-10 21:02:00,
2013-02-10 13:11:00,60.0,27.0,29.96,NW,305,3.0,13.0,28,0.00,,,-99.99,,2013-02-10 21:11:00,
2013-02-10 13:21:00,60.0,27.0,29.96,NW,305,3.0,13.0,28,0.00,,,-99.99,,2013-02-10 21:21:00,
2013-02-10 13:31:00,60.0,26.0,29.96,WNW,289,6.0,15.0,27,0.00,,,-99.99,,2013-02-10 21:31:00,
2013-02-10 13:41:00,59.0,27.0,29.95,West,269,3.0,13.0,29,0.00,,,-99.99,,2013-02-10 21:41:00,
2013-02-10 13:51:00,59.0,27.0,29.95,West,269,3.0,13.0,29,0.00,,,-99.99,,2013-02-10 21:51:00,
2013-02-10 14:01:00,59.0,26.0,29.95,WNW,289,6.0,11.0,28,0.00,,,-99.99,,2013-02-10 22:01:00,
2013-02-10 14:11:00,60.0,26.0,29.95,West,275,4.0,12.0,27,0.00,,,-99.99,,2013-02-10 22:11:00,
2013-02-10 14:21:00,60.0,26.0,29.95,West,275,4.0,12.0,27,0.00,,,-99.99,,2013-02-10 22:21:00,
2013-02-10 14:31:00,61.0,26.0,29.95,WNW,291,6.0,15.0,26,0.00,,,-99.99,,2013-02-10 22:31:00,
2013-02-10 14:41:00,61.0,27.0,29.94,WNW,293,4.0,14.0,27,0.00,,,-99.99,,2013-02-10 22:41:00,
2013-02-10 14:52:00,61.0,27.0,29.94,WNW,293,4.0,14.0,27,0.00,,,-99.99,,2013-02-10 22:52:00,
2013-02-10 15:01:00,60.0,26.0,29.94,WNW,284,6.0,14.0,27,0.00,,,-99.99,,2013-02-10 23:01:00,
2013-02-10 15:11:00,60.0,26.0,29.94,WNW,284,6.0,14.0,27,0.00,,,-99.99,,2013-02-10 23:11:00,
2013-02-10 15:21:00,59.0,26.0,29.94,WNW,294,5.0,14.0,28,0.00,,,-99.99,,2013-02-10 23:21:00,
2013-02-10 15:31:00,58.0,27.0,29.93,WNW,287,6.0,13.0,30,0.00,,,-99.99,,2013-02-10 23:31:00,
2013-02-10 15:41:00,58.0,28.0,29.93,WNW,284,5.0,11.0,31,0.00,,,-99.99,,2013-02-10 23:41:00,
2013-02-10 15:52:00,58.0,28.0,29.93,WNW,284,5.0,11.0,31,0.00,,,-99.99,,2013-02-10 23:52:00,
2013-02-10 16:01:00,59.0,28.0,29.93,WNW,284,4.0,13.0,30,0.00,,,-99.99,,2013-02-11 00:01:00,
2013-02-10 16:11:00,58.0,28.0,29.93,WNW,294,3.0,14.0,31,0.00,,,-99.99,,2013-02-11 00:11:00,
2013-02-10 16:21:00,58.0,28.0,29.93,WNW,294,3.0,14.0,31,0.00,,,-99.99,,2013-02-11 00:21:00,
2013-02-10 16:31:00,58.0,28.0,29.92,WNW,302,4.0,14.0,31,0.00,,,-99.99,,2013-02-11 00:31:00,
2013-02-10 16:41:00,58.0,28.0,29.93,WNW,297,3.0,12.0,32,0.00,,,-99.99,,2013-02-11 00:41:00,
2013-02-10 16:51:00,58.0,28.0,29.93,WNW,297,3.0,12.0,32,0.00,,,-99.99,,2013-02-11 00:51:00,
2013-02-10 17:01:00,56.0,28.0,29.92,WNW,298,4.0,13.0,34,0.00,,,-99.99,,2013-02-11 01:01:00,
2013-02-10 17:11:00,56.0,28.0,29.92,WNW,298,4.0,13.0,34,0.00,,,-99.99,,2013-02-11 01:11:00,
2013-02-10 17:21:00,55.0,29.0,29.93,WNW,302,4.0,12.0,36,0.00,,,-99.99,,2013-02-11 01:21:00,
2013-02-10 17:31:00,55.0,29.0,29.93,WNW,294,3.0,13.0,37,0.00,,,-99.99,,2013-02-11 01:31:00,
2013-02-10 17:41:00,54.0,29.0,29.93,WNW,290,2.0,11.0,38,0.00,,,-99.99,,2013-02-11 01:41:00,
2013-02-10 17:52:00,54.0,29.0,29.93,WNW,290,2.0,11.0,38,0.00,,,-99.99,,2013-02-11 01:52:00,
2013-02-10 18:01:00,54.0,30.0,29.93,NW,305,4.0,10.0,39,0.00,,,-99.99,,2013-02-11 02:01:00,
2013-02-10 18:11:00,54.0,30.0,29.93,NW,305,4.0,10.0,39,0.00,,,-99.99,,2013-02-11 02:11:00,
2013-02-10 18:21:00,53.0,29.0,29.93,NW,307,5.0,13.0,40,0.00,,,-99.99,,2013-02-11 02:21:00,
2013-02-10 18:31:00,53.0,30.0,29.94,WNW,302,3.0,11.0,41,0.00,,,-99.99,,2013-02-11 02:31:00,
2013-02-10 18:41:00,53.0,30.0,29.94,WNW,289,3.0,8.0,41,0.00,,,-99.99,,2013-02-11 02:41:00,
2013-02-10 18:52:00,53.0,30.0,29.94,WNW,289,3.0,8.0,41,0.00,,,-99.99,,2013-02-11 02:52:00,
2013-02-10 19:01:00,53.0,31.0,29.94,NW,305,3.0,11.0,42,0.00,,,-99.99,,2013-02-11 03:01:00,
2013-02-10 19:11:00,52.0,30.0,29.95,WNW,294,3.0,11.0,43,0.00,,,-99.99,,2013-02-11 03:11:00,
2013-02-10 19:21:00,52.0,30.0,29.95,WNW,294,3.0,11.0,43,0.00,,,-99.99,,2013-02-11 03:21:00,
2013-02-10 19:31:00,52.0,30.0,29.95,NW,305,3.0,10.0,43,0.00,,,-99.99,,2013-02-11 03:31:00,
2013-02-10 19:41:00,52.0,30.0,29.95,WNW,297,4.0,13.0,43,0.00,,,-99.99,,2013-02-11 03:41:00,
2013-02-10 19:51:00,52.0,30.0,29.95,WNW,297,4.0,13.0,43,0.00,,,-99.99,,2013-02-11 03:51:00,
2013-02-10 20:01:00,52.0,31.0,29.95,WNW,291,4.0,12.0,44,0.00,,,-99.99,,2013-02-11 04:01:00,
2013-02-10 20:11:00,52.0,31.0,29.95,WNW,291,4.0,12.0,44,0.00,,,-99.99,,2013-02-11 04:11:00,
2013-02-10 20:21:00,52.0,31.0,29.95,West,280,4.0,10.0,45,0.00,,,-99.99,,2013-02-11 04:21:00,
2013-02-10 20:31:00,52.0,32.0,29.96,WNW,298,3.0,11.0,47,0.00,,,-99.99,,2013-02-11 04:31:00,
2013-02-10 20:41:00,52.0,33.0,29.96,WNW,298,3.0,13.0,48,0.00,,,-99.99,,2013-02-11 04:41:00,
2013-02-10 20:51:00,52.0,33.0,29.96,WNW,298,3.0,13.0,48,0.00,,,-99.99,,2013-02-11 04:51:00,
2013-02-10 21:01:00,51.0,33.0,29.96,WNW,284,4.0,13.0,50,0.00,,,-99.99,,2013-02-11 05:01:00,
2013-02-10 21:11:00,51.0,34.0,29.96,WNW,301,4.0,11.0,51,0.00,,,-99.99,,2013-02-11 05:11:00,
2013-02-10 21:22:00,51.0,34.0,29.96,WNW,301,4.0,11.0,51,0.00,,,-99.99,,2013-02-11 05:22:00,
2013-02-10 21:31:00,51.0,34.0,29.97,WNW,286,3.0,11.0,51,0.00,,,-99.99,,2013-02-11 05:31:00,
2013-02-10 21:41:00,51.0,34.0,29.98,WNW,303,2.0,9.0,52,0.00,,,-99.99,,2013-02-11 05:41:00,
2013-02-10 21:52:00,51.0,34.0,29.98,WNW,303,2.0,9.0,52,0.00,,,-99.99,,2013-02-11 05:52:00,
2013-02-10 22:01:00,51.0,34.0,29.98,WNW,287,2.0,7.0,51,0.00,,,-99.99,,2013-02-11 06:01:00,
2013-02-10 22:11:00,51.0,34.0,29.98,WNW,292,3.0,10.0,52,0.00,,,-99.99,,2013-02-11 06:11:00,
2013-02-10 22:21:00,51.0,34.0,29.98,WNW,292,3.0,10.0,52,0.00,,,-99.99,,2013-02-11 06:21:00,
2013-02-10 22:31:00,51.0,34.0,29.98,WNW,297,2.0,10.0,52,0.00,,,-99.99,,2013-02-11 06:31:00,
2013-02-10 22:41:00,51.0,34.0,29.99,NW,315,4.0,13.0,51,0.00,,,-99.99,,2013-02-11 06:41:00,
2013-02-10 22:51:00,51.0,34.0,29.99,NW,315,4.0,13.0,51,0.00,,,-99.99,,2013-02-11 06:51:00,
2013-02-10 23:01:00,51.0,34.0,29.99,WNW,297,3.0,11.0,52,0.00,,,-99.99,,2013-02-11 07:01:00,
2013-02-10 23:11:00,51.0,34.0,29.99,WNW,291,4.0,11.0,51,0.00,,,-99.99,,2013-02-11 07:11:00,
2013-02-10 23:21:00,51.0,34.0,29.99,WNW,291,4.0,11.0,51,0.00,,,-99.99,,2013-02-11 07:21:00,
2013-02-10 23:31:00,51.0,34.0,29.99,WNW,294,5.0,16.0,53,0.00,,,-99.99,,2013-02-11 07:31:00,
2013-02-10 23:41:00,50.0,34.0,30.00,WNW,291,2.0,13.0,53,0.00,,,-99.99,,2013-02-11 07:41:00,
2013-02-10 23:51:00,50.0,34.0,30.00,WNW,291,2.0,13.0,53,0.00,,,-99.99,,2013-02-11 07:51:00,